TimeCST,TemperatureF,Dew PointF,Humidity,Sea Level PressureIn,VisibilityMPH,Wind Direction,Wind SpeedMPH,Gust SpeedMPH,PrecipitationIn,Events,Conditions,WindDirDegrees,DateUTC
12:10 AM,33.8,33.8,100,29.77,0.5,South,9.2,-,0.00,Fog,Fog,180,2013-01-28 06:10:00
12:37 AM,33.8,33.8,100,29.76,1.2,South,11.5,-,0.02,,Overcast,180,2013-01-28 06:37:00
12:49 AM,33.8,33.8,100,29.76,0.5,South,9.2,-,0.02,Fog,Fog,180,2013-01-28 06:49:00
12:53 AM,34.0,34.0,100,29.80,0.5,South,8.1,-,0.02,Fog-Rain,Light Rain,190,2013-01-28 06:53:00
1:21 AM,33.8,33.8,100,29.75,1.0,South,9.2,-,0.05,Rain,Light Rain,180,2013-01-28 07:21:00
1:30 AM,33.8,33.8,100,29.75,0.8,South,8.1,-,0.06,,Mist,180,2013-01-28 07:30:00
1:53 AM,34.0,34.0,100,29.79,0.5,SSW,8.1,-,0.06,Fog,Fog,210,2013-01-28 07:53:00
2:06 AM,35.6,35.6,100,29.77,0.2,SW,8.1,-,N/A,Fog,Fog,220,2013-01-28 08:06:00
2:53 AM,35.1,35.1,100,29.80,0.2,SW,5.8,-,0.01,Fog,Fog,220,2013-01-28 08:53:00
3:53 AM,35.1,35.1,100,29.81,0.2,SW,5.8,-,N/A,Fog,Fog,230,2013-01-28 09:53:00
4:53 AM,35.1,35.1,100,29.83,0.2,SW,5.8,-,N/A,Fog,Fog,230,2013-01-28 10:53:00
5:34 AM,35.6,35.6,100,29.82,0.8,West,6.9,-,N/A,,Mist,280,2013-01-28 11:34:00
5:53 AM,35.1,35.1,100,29.86,0.5,WNW,6.9,-,N/A,Fog,Fog,290,2013-01-28 11:53:00
6:05 AM,35.6,35.6,100,29.83,1.8,NW,9.2,-,N/A,,Overcast,310,2013-01-28 12:05:00
6:11 AM,35.6,35.6,100,29.84,3.0,NW,11.5,-,N/A,,Overcast,310,2013-01-28 12:11:00
6:53 AM,34.0,34.0,100,29.90,4.0,NW,4.6,-,N/A,,Overcast,310,2013-01-28 12:53:00
7:11 AM,33.8,33.8,100,29.87,6.0,WNW,4.6,-,N/A,,Overcast,300,2013-01-28 13:11:00
7:53 AM,34.0,34.0,100,29.92,5.0,NNW,3.5,-,N/A,,Overcast,330,2013-01-28 13:53:00
8:08 AM,33.8,33.8,100,29.89,7.0,NW,5.8,-,N/A,,Overcast,320,2013-01-28 14:08:00
8:19 AM,35.6,33.8,93,29.90,7.0,NNW,4.6,-,N/A,,Overcast,330,2013-01-28 14:19:00
9:53 AM,37.0,34.0,89,29.94,10.0,North,5.8,-,N/A,,Overcast,350,2013-01-28 15:53:00
10:12 AM,37.4,35.6,93,29.91,10.0,NNW,4.6,-,N/A,,Mostly Cloudy,330,2013-01-28 16:12:00
10:53 AM,39.0,35.1,86,29.95,10.0,North,4.6,-,N/A,,Mostly Cloudy,10,2013-01-28 16:53:00
11:53 AM,39.0,35.1,86,29.94,8.0,Calm,Calm,-,N/A,,Overcast,0,2013-01-28 17:53:00
12:49 PM,39.2,35.6,87,29.88,7.0,Calm,Calm,-,N/A,,Partly Cloudy,0,2013-01-28 18:49:00
12:53 PM,39.9,36.0,86,29.91,7.0,Calm,Calm,-,N/A,,Partly Cloudy,0,2013-01-28 18:53:00
1:53 PM,43.0,37.0,80,29.90,10.0,East,4.6,-,N/A,,Partly Cloudy,100,2013-01-28 19:53:00
2:53 PM,43.0,37.9,82,29.90,8.0,SE,5.8,-,N/A,,Clear,130,2013-01-28 20:53:00
3:53 PM,42.1,37.0,82,29.89,10.0,East,6.9,-,N/A,,Clear,80,2013-01-28 21:53:00
4:53 PM,39.0,35.1,86,29.90,9.0,East,5.8,-,N/A,,Clear,100,2013-01-28 22:53:00
5:23 PM,37.4,35.6,93,29.87,10.0,East,4.6,-,N/A,,Mostly Cloudy,100,2013-01-28 23:23:00
5:53 PM,39.0,36.0,89,29.89,10.0,East,8.1,-,N/A,,Overcast,100,2013-01-28 23:53:00
6:18 PM,37.4,35.6,93,29.87,10.0,SSE,5.8,-,N/A,,Overcast,150,2013-01-29 00:18:00
6:27 PM,37.4,35.6,93,29.87,9.0,SSE,5.8,-,N/A,,Overcast,150,2013-01-29 00:27:00
6:53 PM,37.9,36.0,93,29.88,6.0,SE,8.1,-,N/A,,Overcast,130,2013-01-29 00:53:00
7:01 PM,37.4,37.4,100,29.84,6.0,ESE,5.8,-,N/A,,Overcast,110,2013-01-29 01:01:00
7:44 PM,37.4,37.4,100,29.83,3.0,East,9.2,-,N/A,,Overcast,100,2013-01-29 01:44:00
7:53 PM,37.9,37.0,97,29.86,3.0,ESE,9.2,-,N/A,,Overcast,110,2013-01-29 01:53:00
8:03 PM,37.4,37.4,100,29.83,2.5,East,5.8,-,N/A,,Overcast,100,2013-01-29 02:03:00
8:31 PM,37.4,37.4,100,29.81,1.2,ESE,10.4,-,N/A,,Overcast,110,2013-01-29 02:31:00
8:53 PM,37.9,37.9,100,29.82,0.5,East,12.7,-,N/A,Fog,Fog,100,2013-01-29 02:53:00
9:21 PM,37.4,37.4,100,29.77,0.2,ESE,9.2,-,N/A,Fog,Fog,110,2013-01-29 03:21:00
9:29 PM,37.4,37.4,100,29.76,0.2,East,9.2,-,N/A,Fog,Fog,100,2013-01-29 03:29:00
9:45 PM,37.4,37.4,100,29.74,0.2,ESE,10.4,-,N/A,Fog,Fog,110,2013-01-29 03:45:00
9:53 PM,39.0,39.0,100,29.75,0.2,ESE,10.4,-,N/A,Fog,Fog,110,2013-01-29 03:53:00
10:13 PM,39.2,39.2,100,29.72,0.2,ESE,8.1,-,N/A,Fog-Thunderstorm,Fog,110,2013-01-29 04:13:00
10:33 PM,39.2,39.2,100,29.69,0.2,SE,18.4,24.2,0.05,Fog-Rain-Thunderstorm,Heavy Thunderstorms and Rain,130,2013-01-29 04:33:00
10:39 PM,39.2,39.2,100,29.69,1.0,SE,20.7,25.3,0.29,Rain-Thunderstorm,Light Thunderstorms and Rain,130,2013-01-29 04:39:00
10:42 PM,39.2,39.2,100,29.69,3.0,SE,20.7,-,0.29,Rain-Thunderstorm,Light Thunderstorms and Rain,130,2013-01-29 04:42:00
10:51 PM,41.0,39.2,93,29.68,5.0,SE,21.9,-,0.29,Thunderstorm,Overcast,130,2013-01-29 04:51:00
10:53 PM,41.0,41.0,100,29.70,3.0,SE,20.7,-,0.29,Rain-Thunderstorm,Light Rain,130,2013-01-29 04:53:00
11:12 PM,39.2,39.2,100,29.68,5.0,SE,17.3,-,0.05,,Overcast,130,2013-01-29 05:12:00
11:22 PM,39.2,39.2,100,29.68,1.5,SE,17.3,-,0.05,,Overcast,130,2013-01-29 05:22:00
11:33 PM,41.0,41.0,100,29.68,0.5,SE,12.7,-,0.05,Fog,Fog,140,2013-01-29 05:33:00
11:41 PM,42.8,42.8,100,29.67,0.2,SE,11.5,-,0.05,Fog,Fog,140,2013-01-29 05:41:00
11:53 PM,42.1,42.1,100,29.68,0.2,SE,13.8,-,0.05,Fog,Fog,130,2013-01-29 05:53:00